TimeEST,TemperatureF,Dew PointF,Humidity,Sea Level PressureIn,VisibilityMPH,Wind Direction,Wind SpeedMPH,Gust SpeedMPH,PrecipitationIn,Events,Conditions,WindDirDegrees,DateUTC
12:53 AM,73.9,70.0,87,29.97,10.0,South,9.2,-,N/A,,Scattered Clouds,170,2012-12-29 05:53:00
1:53 AM,73.9,70.0,87,29.95,10.0,SSE,10.4,-,N/A,,Scattered Clouds,160,2012-12-29 06:53:00
2:53 AM,73.9,70.0,87,29.94,10.0,South,8.1,-,N/A,,Partly Cloudy,180,2012-12-29 07:53:00
3:53 AM,73.0,70.0,90,29.94,10.0,South,5.8,-,N/A,,Partly Cloudy,170,2012-12-29 08:53:00
4:53 AM,73.0,70.0,90,29.94,10.0,South,8.1,-,N/A,,Partly Cloudy,190,2012-12-29 09:53:00
5:53 AM,73.0,70.0,90,29.94,10.0,South,10.4,-,N/A,,Clear,180,2012-12-29 10:53:00
6:53 AM,73.9,70.0,87,29.98,10.0,South,11.5,-,N/A,,Scattered Clouds,190,2012-12-29 11:53:00
7:53 AM,73.9,70.0,87,30.00,10.0,South,9.2,-,N/A,,Mostly Cloudy,180,2012-12-29 12:53:00
8:53 AM,75.0,71.1,87,30.01,10.0,SSW,11.5,-,N/A,,Mostly Cloudy,200,2012-12-29 13:53:00
9:53 AM,77.0,72.0,84,30.01,10.0,South,10.4,-,N/A,,Mostly Cloudy,190,2012-12-29 14:53:00
10:33 AM,78.8,71.6,78,30.02,10.0,SSW,10.4,-,N/A,,Mostly Cloudy,210,2012-12-29 15:33:00
10:53 AM,81.0,72.0,74,30.02,10.0,SSW,15.0,21.9,N/A,,Mostly Cloudy,210,2012-12-29 15:53:00
11:53 AM,80.1,71.1,74,30.00,10.0,SW,16.1,-,N/A,,Mostly Cloudy,230,2012-12-29 16:53:00
12:53 PM,81.0,71.1,72,29.96,10.0,WSW,15.0,20.7,N/A,,Mostly Cloudy,240,2012-12-29 17:53:00
1:41 PM,82.4,69.8,66,29.94,10.0,SW,13.8,23.0,N/A,,Mostly Cloudy,230,2012-12-29 18:41:00
1:53 PM,82.0,70.0,67,29.94,10.0,SW,17.3,-,N/A,,Mostly Cloudy,230,2012-12-29 18:53:00
2:53 PM,82.0,68.0,62,29.92,10.0,SW,17.3,-,N/A,,Mostly Cloudy,230,2012-12-29 19:53:00
3:53 PM,81.0,66.9,62,29.92,10.0,SW,16.1,-,N/A,,Mostly Cloudy,230,2012-12-29 20:53:00
4:53 PM,80.1,68.0,67,29.93,10.0,SW,12.7,-,N/A,,Mostly Cloudy,230,2012-12-29 21:53:00
5:53 PM,78.1,68.0,71,29.94,10.0,SW,9.2,-,N/A,,Mostly Cloudy,220,2012-12-29 22:53:00
6:53 PM,77.0,69.1,76,29.97,10.0,West,6.9,-,N/A,,Mostly Cloudy,260,2012-12-29 23:53:00
7:53 PM,75.9,68.0,76,30.00,10.0,WNW,9.2,-,N/A,,Mostly Cloudy,290,2012-12-30 00:53:00
8:53 PM,72.0,64.0,76,30.03,10.0,WNW,13.8,-,N/A,,Scattered Clouds,290,2012-12-30 01:53:00
9:53 PM,66.9,54.0,63,30.06,10.0,WNW,16.1,25.3,N/A,,Scattered Clouds,290,2012-12-30 02:53:00
10:53 PM,63.0,55.0,75,30.09,10.0,WNW,13.8,-,N/A,,Clear,290,2012-12-30 03:53:00
11:53 PM,60.1,50.0,69,30.10,10.0,WNW,16.1,20.7,N/A,,Clear,300,2012-12-30 04:53:00